SCP
-0 -0 -0 -0 -0 -0 -0 -0 -0 -0 -0 -0 -0 -0 0 -0 0 0 0 0 0 0 0 0 0 0 0 0 0 0 0 0 0 0 0 0 0 0 0 0 0 0 0 0 0
-0 -0 -0 -0 -0 -0 -0 0 -0 -0 -0 -0 0 -0 0 0 -0 0 0 0 0 0 0 0 0 0 0 0 0 0 0 0 0 0 0 0 0 0 0 0 0 0 0 0 0
-0 -0 -0 -0 -0 -0 -0 0 -0 -0 -0 -0 -0 -0 0 0 0 0 0 0 0 0 0 0 0 0 0 -0 -0 0 0 0 0 0 0 0 0 0 0 0 0 0 0 0 0
-0 -0 -0 -0 -0 -0 -0 -0 -0 -0 -0 -0 -0 0 0 -0 0 0 0 0 0 0 0 0 0 0 0 -0 -0 0 0 0 0 0 0 0 0 0 0 0 0 0 0 0 0
-0 -0 0 -0 -0 -0 -0 -0 -0 -0 -0 0 0 0 0 -0 -0 0 0 0 0 0 0 0 0 0 0 -0 -0 -0 0 0 0 0 -0 -0 -0 0 0 0 0 0 0 0 0
-0 0 -0 0 0 0 -0 0 -0 -0 -0 -0 0 0 0 0 0 0 0 0 0 0 0 0 -0 -0 -0 -0 -0 0 0 -0 -0 -0 -0 0 0 0 0 -0 0 0 0 0 0
0 0 0 0 0 0 0 0 -0 -0 -0 0 0 0 0 -0 -0 0 0 0 0 -0 0 -0 -0 -0 0 -0 -0 0 -0 0 0 -0 0 0 -0 0 -0 -0 0 0 0 0 0
0 0 -0 -0 -0 -0 0 0 0 -0 -0 -0 0 0 -0 -0 -0 -0 0 -0 0 0 0 0 0 0 -0 0 0 0 0 -0 -0 -0 0 0 0 -0 0 -0 0 0 0 0 0
0 0 -0 -0 -0 0 0 -0 -0 0 -0 0 0 0 0 -0 -0 0 0 0 0 0 0 0 0 0 0 0 0 0 -0 -0 -0 -0 -0 -0 0 0 0 0 -0 -0 -0 0 -0
0 0 -0 -0 -0 0 0 -0 0 0 0 0 0 0 0 -0 -0 -0 0 0 0 -0 -0 0 0 0 0 0 0 0 0 -0 -0 -0 -0 -0 0 0 0 0 0 -0 0 0 -0
0 0 0 -0 0 0 0 0 0 0 0 0 0 0 0 -0 0 -0 -0 -0 0 0 0 0 0 0 0 0 0 0 0 0 -0 -0 0 0 -0 0 0 -0 -0 -0 -0 -0 -0
0 0 0 0 0 0 0 0 0 0 0 0 0 0 0 0 0 0 0 0 0 0 0 0 0 0 0 0 0 0 0 0 0 0 -0 -0 -0 0 0 0 0 0 0 -0 -0
0 0 0 0 0 0 0 0 0 0 0 0 0 0 0 0 0 0 0 0 0 0 0 0 0 -0 0 0 0 0 0 0 0 0 0 0 -0 -0 0 0 0 0 0 0 0
0 0 0 0 0 0 0 0 0 0 0 0 0 0 0 0 0 0 0 0 0 0 0 0 0 0 0 0 0 0 0 0 0 0 0 0 -0 0 0 0 0 0 0 0 0
0 0 0 0 0 0 0 0 0 0 0 0 0 0 0 0 0 0 0 0 0 0 0 0 0 0 0 0 0 0 0 0 0 0 0 0 0 0 0 0 0 0 0 0 -0
0 0 0 0 0 0 0 0 0 0 0 0 0 0 0 0 0 0 0 0 0 0 0 0 0 0 0 0 0 0 0 0 0 0 0 0 0 0 0 -0 0 0 -0 -0 -0
0 0 0 0 0 0 0 0 0 0 0 0 0 0 0 0 0 0 0 0 0 0 0 0 0 0 0 0 0 0 0 0 0 0 0 0 0 -0 0 0 -0 -0 -0 -0 -0
0 0 0 0 0 0 0 0 0 0 0 0 0 0 0 0 0 0 0 0 0 0 0 0 0 0 0 0 0 0 0 0 0 0 0 0 0 0 0 -0 0 0 -0 -0 -0
0 0 0 0 0 0 0 0 0 0 0 0 0 0 0 0 0 0 0 0 0 0 0 0 0 0 0 0 0 0 0 0 0 0 0 0 0 -0 0 0 0 0 0 0 0
0 0 0 0 0 0 0 0 0 0 0 0 0 0 0 0 0 0 0 0 0 0 0 0 0 0 0 0 0 0 0 0 0 0 0 0 0 0 0 0 0 0 0 0 0
0 0 0 0 0 0 0 0 0 0 0 0 0 0 0 0 0 0 0 0 0 0 0 0 0 0 0 0 0 0 0 0 0 0 0 0 0 0 0 0 0 0 0 0 0
0 0 0 0 0 0 0 0 0 0 0 0 0 0 0 0 0 0 0 0 0 0 0 0 0 0 0 0 0 0 0 0 0 0 0 0 0 0 0 0 0 0 0 0 0
0 0 0 0 0 0 0 0 0 0 0 0 0 0 0 0 0 0 0 0 0 0 0 0 0 0 0 0 0 0 0 0 0 0 0 0 0 0 0 0 0 0 0 0 0
0 0 0 0 0 0 0 0 0 0 0 0 0 0 0 0 0 0 0 0 0 0 0 0 0 0 0 0 0 0 0 0 0 0 0 0 0 0 0 0 0 0 0 0 0
0 0 0 0 0 0 0 0 0 0 0 0 0 0 0 0 0 0 0 0 0 0 0 0 0 0 0 0 0 0 0 0 0 0 0 0 0 0 0 0 0 0 0 0 0
0 0 0 0 0 0 0 0 0 0 0 0 0 0 0 0 0 0 0 0 0 0 0 0 0 0 0 0 0 0 0 0 0 0 0 0 0 0 0 0 0 0 0 0 0
0 0 0 0 0 0 0 0 0 0 0 0 0 0 0 0 0 0 0 0 0 0 0 0 0 0 0 0 0 0 0 0 0 0 0 0 0 0 0 0 0 0 0 0 0
Wind_Speed_500mb
26 28 31 35 40 42 37 33 27 27 37 37 12 10 42 52 45 62 81 56 48 38 29 21 19 2 16 33 27 12 9 8 7 7 10 17 9 31 27 41 54 24 27 15 9
22 24 26 29 34 41 44 44 38 28 24 34 39 11 21 31 72 81 60 58 56 42 27 10 21 16 28 24 22 19 9 11 9 9 20 31 27 16 17 39 38 38 31 28 25
17 19 21 23 28 30 31 34 46 42 31 20 36 26 20 12 50 66 67 63 57 42 26 12 15 47 45 33 30 16 12 23 32 40 35 32 31 12 24 20 22 20 29 35 38
15 17 19 19 25 32 34 36 36 44 44 27 33 45 14 1 13 53 67 61 52 46 32 20 14 24 18 22 28 19 38 23 20 18 14 14 18 25 33 17 25 27 28 26 32
13 14 18 17 18 22 24 20 24 32 39 31 22 25 43 70 44 51 63 73 61 57 59 70 74 46 25 29 53 34 30 44 53 56 52 52 36 25 34 29 34 37 40 43 43
11 10 12 14 13 12 18 22 21 16 28 41 41 27 53 74 44 50 48 63 75 63 77 78 66 62 44 28 25 43 48 30 24 28 21 17 19 14 18 33 36 24 25 28 28
10 5 7 15 16 17 16 15 20 18 14 18 19 37 73 35 31 39 43 51 58 62 73 43 24 38 40 42 39 45 30 27 15 12 15 9 18 9 21 14 11 15 20 23 23
7 4 4 6 9 11 16 24 9 7 22 14 7 28 30 26 23 19 28 36 35 51 58 48 46 55 22 51 13 8 7 6 3 6 3 5 3 2 15 10 3 7 12 19 23
6 3 3 6 13 14 13 22 33 14 11 9 15 10 12 14 16 19 21 29 37 30 29 33 40 30 16 9 8 9 7 7 3 10 7 5 5 16 15 11 12 2 7 11 14
4 4 11 19 10 13 22 11 27 14 6 4 9 10 13 12 15 13 20 18 14 26 14 20 22 10 10 8 1 8 10 8 9 11 16 15 8 19 23 14 12 5 1 3 6
4 2 12 8 4 16 20 4 3 6 37 26 17 15 8 13 22 13 13 21 26 30 10 26 17 12 10 12 12 16 14 13 3 7 11 7 7 12 18 22 19 15 10 7 1
5 4 9 11 15 16 10 10 15 11 22 18 17 18 20 10 5 19 14 9 11 10 6 14 14 10 6 16 20 15 14 6 6 7 9 7 7 11 23 28 30 26 22 17 12
7 8 8 10 10 2 10 16 12 8 8 8 11 9 8 15 14 22 12 16 20 17 15 13 4 11 8 11 17 9 6 4 7 6 8 9 7 9 18 32 34 35 30 26 21
11 10 8 7 2 11 11 8 4 2 9 4 4 5 6 4 8 20 14 5 10 10 9 12 11 8 10 9 4 6 3 3 7 5 4 6 6 11 14 18 34 48 44 39 31
15 13 10 7 3 10 8 2 4 2 8 3 0 2 10 8 2 13 15 15 8 6 2 2 6 9 11 2 4 6 0 3 4 6 6 4 7 10 9 16 27 55 59 52 42
16 15 13 13 11 8 11 4 2 13 11 1 1 2 4 8 5 4 6 13 12 11 20 7 4 4 1 4 2 3 5 10 7 5 6 8 8 8 13 20 14 51 70 65 56
17 16 15 14 12 14 17 12 11 9 7 7 6 2 4 3 5 5 5 4 6 8 2 1 2 3 3 4 5 3 8 6 9 7 9 2 5 18 14 15 25 54 78 76 66
21 20 19 17 12 18 23 10 9 9 14 4 5 4 6 7 3 3 4 3 6 6 6 9 8 8 2 1 6 4 7 9 11 4 8 9 11 11 12 32 34 35 56 70 71
25 23 24 21 19 22 17 6 19 17 14 21 6 7 6 4 7 6 13 11 15 17 12 9 5 3 4 2 2 5 4 5 14 1 7 5 15 15 5 11 25 29 45 59 73
27 22 32 25 24 30 7 14 11 8 19 9 20 14 16 11 10 12 12 9 11 13 3 11 6 3 4 3 1 4 9 5 6 1 7 9 11 12 12 23 18 34 52 63 66
26 11 18 31 30 24 9 16 13 18 20 15 21 11 12 17 17 12 9 4 12 12 6 9 6 3 2 13 17 4 5 4 6 7 10 3 12 15 19 20 29 52 65 64 70
25 6 20 33 15 5 8 15 16 16 32 12 6 8 20 19 18 12 21 14 32 38 18 13 10 8 8 1 1 4 10 11 9 11 6 4 14 11 18 21 39 61 68 67 64
16 20 25 46 8 7 9 9 17 13 16 17 19 14 8 18 2 15 11 2 35 29 19 17 4 4 14 5 6 11 12 9 8 6 13 12 12 7 15 21 31 45 58 67 67
16 3 16 47 19 14 11 11 11 27 12 18 13 13 8 9 2 15 9 8 21 20 11 22 7 15 18 15 12 12 13 13 13 8 9 17 16 15 18 21 38 41 48 55 65
35 18 19 8 15 23 18 17 15 15 17 27 7 16 19 11 4 11 5 6 4 15 14 12 15 11 7 4 5 9 11 32 29 31 22 24 37 41 30 27 59 56 51 53 61
31 17 18 7 14 31 31 17 26 8 23 16 16 33 23 23 34 30 18 10 15 15 14 10 6 5 9 4 6 14 15 26 41 18 32 29 35 24 33 27 54 65 59 67 70
48 34 25 22 13 12 13 25 34 28 26 54 50 14 29 43 25 17 33 21 27 27 23 16 13 7 14 6 10 27 40 44 22 17 30 36 52 32 21 49 67 77 66 71 67
Wind_Direction_500mb
78 70 65 64 62 61 63 57 48 40 41 44 29 109 70 55 47 40 35 9 358 357 337 343 7 67 51 54 47 69 67 49 56 76 129 154 114 62 61 63 56 76 67 53 57
62 58 61 60 63 66 65 54 51 47 40 34 26 68 155 60 42 38 20 14 9 4 351 19 42 77 61 29 30 53 67 42 23 80 102 91 102 94 76 67 50 65 82 88 88
59 59 54 59 63 67 60 57 53 46 36 42 33 37 164 209 31 22 31 17 15 16 23 43 85 72 53 51 24 45 88 98 78 97 103 101 70 96 113 65 44 26 63 72 80
57 56 54 67 73 70 69 65 61 46 43 71 54 60 98 295 69 30 33 31 34 40 44 56 102 67 66 54 51 99 64 77 104 86 90 68 91 71 66 98 99 90 83 88 91
62 61 61 66 78 71 71 58 34 42 50 61 53 70 79 79 69 55 46 41 49 55 63 81 76 75 86 99 69 62 79 74 93 92 88 93 77 85 66 96 99 87 83 77 77
60 68 75 64 77 68 54 46 39 56 63 61 62 78 80 74 76 66 54 51 49 64 70 81 91 94 81 75 63 113 105 102 89 87 84 78 55 65 81 105 88 76 75 77 70
41 77 96 71 81 72 48 34 42 59 54 63 63 58 69 77 79 69 59 56 54 58 75 81 84 107 95 93 114 117 104 118 135 133 156 22 28 22 128 118 59 66 69 75 75
33 74 117 94 95 45 45 45 22 60 37 58 44 55 77 70 80 75 71 68 62 69 71 75 81 80 78 119 122 128 150 90 38 218 90 244 261 238 152 126 50 24 62 71 74
15 38 136 120 101 65 28 6 16 210 4 35 33 83 67 73 77 65 53 91 92 82 78 76 66 81 106 119 102 36 97 80 114 33 118 8 190 205 195 244 295 327 56 58 70
23 90 128 127 99 17 354 8 44 48 161 48 33 68 66 52 60 63 71 97 117 120 114 45 61 74 38 36 138 142 99 41 46 10 71 76 102 197 226 235 258 232 60 69 65
340 122 165 172 327 347 356 33 14 63 71 66 60 69 73 66 56 55 119 95 77 85 60 33 66 57 330 16 61 89 95 109 167 218 77 69 155 214 215 228 231 234 222 214 138
314 294 237 260 301 327 29 76 73 119 84 72 71 68 49 51 53 65 82 67 58 85 44 41 52 350 68 67 76 72 93 78 68 140 87 198 238 238 220 224 219 217 217 217 218
296 285 267 272 292 343 109 94 92 99 81 53 48 43 34 45 40 15 46 89 77 61 51 97 10 8 70 56 75 36 86 208 144 130 63 128 301 218 236 232 229 228 227 224 224
294 289 267 277 245 151 132 82 44 90 78 319 359 22 14 56 45 35 48 73 55 142 90 83 6 59 60 62 44 78 351 75 121 57 163 144 258 247 218 224 228 229 225 227 223
287 290 283 256 146 167 181 43 23 20 25 252 348 112 55 93 100 30 36 54 79 61 137 43 26 43 55 336 327 161 271 75 84 74 60 322 72 249 160 234 227 220 224 226 224
285 281 275 249 225 201 182 164 71 41 264 149 165 173 84 46 47 23 56 79 122 82 47 107 85 83 165 311 7 120 85 36 49 76 11 232 133 256 191 209 217 218 224 224 220
277 274 269 258 234 208 180 149 42 127 333 257 211 143 85 81 58 41 32 36 161 90 227 54 7 14 59 63 22 66 73 355 357 6 222 104 37 247 231 217 206 207 218 220 219
278 277 264 253 224 185 169 60 117 227 212 136 117 95 193 161 141 104 90 270 263 94 105 153 309 162 51 228 181 143 156 156 209 222 270 352 240 248 219 234 228 234 221 218 219
270 271 266 247 220 191 184 90 202 197 157 151 90 171 236 186 147 141 203 209 202 186 155 133 216 158 117 104 156 198 203 145 103 186 47 242 279 292 213 209 213 216 213 217 217
263 268 263 239 212 191 111 231 222 186 133 154 180 162 190 197 159 177 186 197 193 191 190 207 86 196 136 131 109 208 152 69 3 109 283 283 276 245 238 231 223 221 216 216 217
255 259 247 214 192 182 178 224 218 207 175 159 197 150 207 180 182 200 207 200 173 154 138 137 97 270 29 200 173 163 196 51 122 147 178 241 258 215 219 207 213 223 220 217 216
225 231 224 193 179 217 178 191 189 186 204 224 152 154 185 173 179 215 209 213 175 155 167 180 137 175 189 89 21 237 210 164 133 237 236 154 268 215 216 227 223 230 226 223 223
210 219 207 189 181 249 275 262 216 154 189 180 206 200 172 176 192 204 200 192 175 167 164 182 230 39 342 359 351 230 196 170 104 78 203 146 259 247 246 247 237 234 226 224 224
199 208 189 202 219 192 170 227 221 212 206 184 168 134 129 173 300 208 227 189 194 196 166 154 153 177 210 209 134 192 198 177 144 141 198 220 254 258 235 232 233 228 226 224 226
204 222 207 205 249 224 187 172 172 201 221 193 206 209 168 150 124 222 212 143 193 200 177 169 205 172 260 265 207 220 180 184 200 215 199 227 226 242 232 217 227 228 231 229 229
206 189 197 221 212 204 218 211 211 212 157 225 225 206 193 187 197 207 155 194 191 167 169 187 223 113 289 349 306 257 230 200 220 238 255 257 263 245 254 234 231 236 242 233 231
220 219 204 216 205 194 198 228 236 212 233 233 212 174 207 220 217 221 191 189 173 159 178 158 140 120 255 11 348 274 209 213 204 202 219 229 240 246 222 225 232 241 235 232 234
Wind_Speed_850mb
26 28 31 35 40 42 37 33 27 27 37 37 12 10 42 52 45 62 81 56 48 38 29 21 19 2 16 33 27 12 9 8 7 7 10 17 9 31 27 41 54 24 27 15 9
22 24 26 29 34 41 44 44 38 28 24 34 39 11 21 31 72 81 60 58 56 42 27 10 21 16 28 24 22 19 9 11 9 9 20 31 27 16 17 39 38 38 31 28 25
17 19 21 23 28 30 31 34 46 42 31 20 36 26 20 12 50 66 67 63 57 42 26 12 15 47 45 33 30 16 12 23 32 40 35 32 31 12 24 20 22 20 29 35 38
15 17 19 19 25 32 34 36 36 44 44 27 33 45 14 1 13 53 67 61 52 46 32 20 14 24 18 22 28 19 38 23 20 18 14 14 18 25 33 17 25 27 28 26 32
13 14 18 17 18 22 24 20 24 32 39 31 22 25 43 70 44 51 63 73 61 57 59 70 74 46 25 29 53 34 30 44 53 56 52 52 36 25 34 29 34 37 40 43 43
11 10 12 14 13 12 18 22 21 16 28 41 41 27 53 74 44 50 48 63 75 63 77 78 66 62 44 28 25 43 48 30 24 28 21 17 19 14 18 33 36 24 25 28 28
10 5 7 15 16 17 16 15 20 18 14 18 19 37 73 35 31 39 43 51 58 62 73 43 24 38 40 42 39 45 30 27 15 12 15 9 18 9 21 14 11 15 20 23 23
7 4 4 6 9 11 16 24 9 7 22 14 7 28 30 26 23 19 28 36 35 51 58 48 46 55 22 51 13 8 7 6 3 6 3 5 3 2 15 10 3 7 12 19 23
6 3 3 6 13 14 13 22 33 14 11 9 15 10 12 14 16 19 21 29 37 30 29 33 40 30 16 9 8 9 7 7 3 10 7 5 5 16 15 11 12 2 7 11 14
4 4 11 19 10 13 22 11 27 14 6 4 9 10 13 12 15 13 20 18 14 26 14 20 22 10 10 8 1 8 10 8 9 11 16 15 8 19 23 14 12 5 1 3 6
4 2 12 8 4 16 20 4 3 6 37 26 17 15 8 13 22 13 13 21 26 30 10 26 17 12 10 12 12 16 14 13 3 7 11 7 7 12 18 22 19 15 10 7 1
5 4 9 11 15 16 10 10 15 11 22 18 17 18 20 10 5 19 14 9 11 10 6 14 14 10 6 16 20 15 14 6 6 7 9 7 7 11 23 28 30 26 22 17 12
7 8 8 10 10 2 10 16 12 8 8 8 11 9 8 15 14 22 12 16 20 17 15 13 4 11 8 11 17 9 6 4 7 6 8 9 7 9 18 32 34 35 30 26 21
11 10 8 7 2 11 11 8 4 2 9 4 4 5 6 4 8 20 14 5 10 10 9 12 11 8 10 9 4 6 3 3 7 5 4 6 6 11 14 18 34 48 44 39 31
15 13 10 7 3 10 8 2 4 2 8 3 0 2 10 8 2 13 15 15 8 6 2 2 6 9 11 2 4 6 0 3 4 6 6 4 7 10 9 16 27 55 59 52 42
16 15 13 13 11 8 11 4 2 13 11 1 1 2 4 8 5 4 6 13 12 11 20 7 4 4 1 4 2 3 5 10 7 5 6 8 8 8 13 20 14 51 70 65 56
17 16 15 14 12 14 17 12 11 9 7 7 6 2 4 3 5 5 5 4 6 8 2 1 2 3 3 4 5 3 8 6 9 7 9 2 5 18 14 15 25 54 78 76 66
21 20 19 17 12 18 23 10 9 9 14 4 5 4 6 7 3 3 4 3 6 6 6 9 8 8 2 1 6 4 7 9 11 4 8 9 11 11 12 32 34 35 56 70 71
25 23 24 21 19 22 17 6 19 17 14 21 6 7 6 4 7 6 13 11 15 17 12 9 5 3 4 2 2 5 4 5 14 1 7 5 15 15 5 11 25 29 45 59 73
27 22 32 25 24 30 7 14 11 8 19 9 20 14 16 11 10 12 12 9 11 13 3 11 6 3 4 3 1 4 9 5 6 1 7 9 11 12 12 23 18 34 52 63 66
26 11 18 31 30 24 9 16 13 18 20 15 21 11 12 17 17 12 9 4 12 12 6 9 6 3 2 13 17 4 5 4 6 7 10 3 12 15 19 20 29 52 65 64 70
25 6 20 33 15 5 8 15 16 16 32 12 6 8 20 19 18 12 21 14 32 38 18 13 10 8 8 1 1 4 10 11 9 11 6 4 14 11 18 21 39 61 68 67 64
16 20 25 46 8 7 9 9 17 13 16 17 19 14 8 18 2 15 11 2 35 29 19 17 4 4 14 5 6 11 12 9 8 6 13 12 12 7 15 21 31 45 58 67 67
16 3 16 47 19 14 11 11 11 27 12 18 13 13 8 9 2 15 9 8 21 20 11 22 7 15 18 15 12 12 13 13 13 8 9 17 16 15 18 21 38 41 48 55 65
35 18 19 8 15 23 18 17 15 15 17 27 7 16 19 11 4 11 5 6 4 15 14 12 15 11 7 4 5 9 11 32 29 31 22 24 37 41 30 27 59 56 51 53 61
31 17 18 7 14 31 31 17 26 8 23 16 16 33 23 23 34 30 18 10 15 15 14 10 6 5 9 4 6 14 15 26 41 18 32 29 35 24 33 27 54 65 59 67 70
48 34 25 22 13 12 13 25 34 28 26 54 50 14 29 43 25 17 33 21 27 27 23 16 13 7 14 6 10 27 40 44 22 17 30 36 52 32 21 49 67 77 66 71 67
Wind_Direction_850mb
78 70 65 64 62 61 63 57 48 40 41 44 29 109 70 55 47 40 35 9 358 357 337 343 7 67 51 54 47 69 67 49 56 76 129 154 114 62 61 63 56 76 67 53 57
62 58 61 60 63 66 65 54 51 47 40 34 26 68 155 60 42 38 20 14 9 4 351 19 42 77 61 29 30 53 67 42 23 80 102 91 102 94 76 67 50 65 82 88 88
59 59 54 59 63 67 60 57 53 46 36 42 33 37 164 209 31 22 31 17 15 16 23 43 85 72 53 51 24 45 88 98 78 97 103 101 70 96 113 65 44 26 63 72 80
57 56 54 67 73 70 69 65 61 46 43 71 54 60 98 295 69 30 33 31 34 40 44 56 102 67 66 54 51 99 64 77 104 86 90 68 91 71 66 98 99 90 83 88 91
62 61 61 66 78 71 71 58 34 42 50 61 53 70 79 79 69 55 46 41 49 55 63 81 76 75 86 99 69 62 79 74 93 92 88 93 77 85 66 96 99 87 83 77 77
60 68 75 64 77 68 54 46 39 56 63 61 62 78 80 74 76 66 54 51 49 64 70 81 91 94 81 75 63 113 105 102 89 87 84 78 55 65 81 105 88 76 75 77 70
41 77 96 71 81 72 48 34 42 59 54 63 63 58 69 77 79 69 59 56 54 58 75 81 84 107 95 93 114 117 104 118 135 133 156 22 28 22 128 118 59 66 69 75 75
33 74 117 94 95 45 45 45 22 60 37 58 44 55 77 70 80 75 71 68 62 69 71 75 81 80 78 119 122 128 150 90 38 218 90 244 261 238 152 126 50 24 62 71 74
15 38 136 120 101 65 28 6 16 210 4 35 33 83 67 73 77 65 53 91 92 82 78 76 66 81 106 119 102 36 97 80 114 33 118 8 190 205 195 244 295 327 56 58 70
23 90 128 127 99 17 354 8 44 48 161 48 33 68 66 52 60 63 71 97 117 120 114 45 61 74 38 36 138 142 99 41 46 10 71 76 102 197 226 235 258 232 60 69 65
340 122 165 172 327 347 356 33 14 63 71 66 60 69 73 66 56 55 119 95 77 85 60 33 66 57 330 16 61 89 95 109 167 218 77 69 155 214 215 228 231 234 222 214 138
314 294 237 260 301 327 29 76 73 119 84 72 71 68 49 51 53 65 82 67 58 85 44 41 52 350 68 67 76 72 93 78 68 140 87 198 238 238 220 224 219 217 217 217 218
296 285 267 272 292 343 109 94 92 99 81 53 48 43 34 45 40 15 46 89 77 61 51 97 10 8 70 56 75 36 86 208 144 130 63 128 301 218 236 232 229 228 227 224 224
294 289 267 277 245 151 132 82 44 90 78 319 359 22 14 56 45 35 48 73 55 142 90 83 6 59 60 62 44 78 351 75 121 57 163 144 258 247 218 224 228 229 225 227 223
287 290 283 256 146 167 181 43 23 20 25 252 348 112 55 93 100 30 36 54 79 61 137 43 26 43 55 336 327 161 271 75 84 74 60 322 72 249 160 234 227 220 224 226 224
285 281 275 249 225 201 182 164 71 41 264 149 165 173 84 46 47 23 56 79 122 82 47 107 85 83 165 311 7 120 85 36 49 76 11 232 133 256 191 209 217 218 224 224 220
277 274 269 258 234 208 180 149 42 127 333 257 211 143 85 81 58 41 32 36 161 90 227 54 7 14 59 63 22 66 73 355 357 6 222 104 37 247 231 217 206 207 218 220 219
278 277 264 253 224 185 169 60 117 227 212 136 117 95 193 161 141 104 90 270 263 94 105 153 309 162 51 228 181 143 156 156 209 222 270 352 240 248 219 234 228 234 221 218 219
270 271 266 247 220 191 184 90 202 197 157 151 90 171 236 186 147 141 203 209 202 186 155 133 216 158 117 104 156 198 203 145 103 186 47 242 279 292 213 209 213 216 213 217 217
263 268 263 239 212 191 111 231 222 186 133 154 180 162 190 197 159 177 186 197 193 191 190 207 86 196 136 131 109 208 152 69 3 109 283 283 276 245 238 231 223 221 216 216 217
255 259 247 214 192 182 178 224 218 207 175 159 197 150 207 180 182 200 207 200 173 154 138 137 97 270 29 200 173 163 196 51 122 147 178 241 258 215 219 207 213 223 220 217 216
225 231 224 193 179 217 178 191 189 186 204 224 152 154 185 173 179 215 209 213 175 155 167 180 137 175 189 89 21 237 210 164 133 237 236 154 268 215 216 227 223 230 226 223 223
210 219 207 189 181 249 275 262 216 154 189 180 206 200 172 176 192 204 200 192 175 167 164 182 230 39 342 359 351 230 196 170 104 78 203 146 259 247 246 247 237 234 226 224 224
199 208 189 202 219 192 170 227 221 212 206 184 168 134 129 173 300 208 227 189 194 196 166 154 153 177 210 209 134 192 198 177 144 141 198 220 254 258 235 232 233 228 226 224 226
204 222 207 205 249 224 187 172 172 201 221 193 206 209 168 150 124 222 212 143 193 200 177 169 205 172 260 265 207 220 180 184 200 215 199 227 226 242 232 217 227 228 231 229 229
206 189 197 221 212 204 218 211 211 212 157 225 225 206 193 187 197 207 155 194 191 167 169 187 223 113 289 349 306 257 230 200 220 238 255 257 263 245 254 234 231 236 242 233 231
220 219 204 216 205 194 198 228 236 212 233 233 212 174 207 220 217 221 191 189 173 159 178 158 140 120 255 11 348 274 209 213 204 202 219 229 240 246 222 225 232 241 235 232 234